When you browse on this site, cookies collect data to enhance your experience and personalize the content and advertising you see.
Visit our Privacy Policy to learn more. By continuing to use the site, you agree to this use of cookies and data.
  • In Österreich
  • Länderverzeichnis
  • Für 7 Tage
  • Wassertemperatur
  • Wetterkarte
  • News
  • Widgets
  • user-avatar
    Anmelden

    Stündliche Wetter Santaren

    Heute, 3 April, Freitag

    Zeit Temperatur Niederschläge Wind Luftdruck Luftfeuchtigkeit
    00:00 +8°C° 0 mm 0 m/S 759 mmHg 89%
    01:00 +8°C° 0 mm 0 m/S 759 mmHg 89%
    02:00 +8°C° 0 mm 0 m/S 759 mmHg 88%
    03:00 +8°C° 0 mm 0 m/S 759 mmHg 89%
    04:00 +8°C° 0 mm 0 m/S 759 mmHg 89%
    05:00 +8°C° 0 mm 1 m/S 759 mmHg 90%
    06:00 +10°C° 0 mm 1 m/S 759 mmHg 84%
    07:00 +13°C° 0 mm 1 m/S 759 mmHg 77%
    08:00 +15°C° 0 mm 2 m/S 759 mmHg 70%
    09:00 +16°C° 0 mm 2 m/S 759 mmHg 63%
    10:00 +18°C° 0 mm 2 m/S 759 mmHg 57%
    11:00 +20°C° 0 mm 2 m/S 759 mmHg 49%
    12:00 +21°C° 0 mm 2 m/S 758 mmHg 47%
    13:00 +21°C° 0 mm 2 m/S 758 mmHg 45%
    14:00 +23°C° 0 mm 2 m/S 757 mmHg 43%
    15:00 +21°C° 0 mm 2 m/S 757 mmHg 50%
    16:00 +20°C° 0 mm 2 m/S 757 mmHg 56%
    17:00 +19°C° 0 mm 2 m/S 756 mmHg 62%
    18:00 +18°C° 0 mm 1 m/S 757 mmHg 68%
    19:00 +15°C° 0 mm 1 m/S 757 mmHg 73%
    20:00 +13°C° 0 mm 1 m/S 757 mmHg 79%
    21:00 +13°C° 0 mm 1 m/S 757 mmHg 81%
    22:00 +12°C° 0 mm 1 m/S 757 mmHg 83%
    23:00 +12°C° 0 mm 1 m/S 757 mmHg 85%

    Morgen, 4 April, Samstag

    Zeit Temperatur Niederschläge Wind Luftdruck Luftfeuchtigkeit
    00:00 +11°C° 0 mm 1 m/S 757 mmHg 85%
    01:00 +11°C° 0 mm 1 m/S 756 mmHg 86%
    02:00 +10°C° 0 mm 2 m/S 756 mmHg 87%
    03:00 +10°C° 0 mm 2 m/S 756 mmHg 87%
    04:00 +10°C° 0 mm 2 m/S 756 mmHg 87%
    05:00 +9°C° 0 mm 2 m/S 756 mmHg 87%
    06:00 +11°C° 0 mm 3 m/S 756 mmHg 81%
    07:00 +12°C° 0 mm 3 m/S 756 mmHg 75%
    08:00 +14°C° 0 mm 4 m/S 756 mmHg 69%
    09:00 +15°C° 0 mm 4 m/S 756 mmHg 65%
    10:00 +16°C° 0 mm 5 m/S 756 mmHg 62%
    11:00 +17°C° 0 mm 6 m/S 756 mmHg 58%
    12:00 +17°C° 0.1 mm 5 m/S 756 mmHg 64%
    13:00 +16°C° 0.1 mm 5 m/S 756 mmHg 70%
    14:00 +16°C° 0.1 mm 5 m/S 755 mmHg 76%
    15:00 +17°C° 0 mm 4 m/S 756 mmHg 77%
    16:00 +15°C° 0 mm 4 m/S 756 mmHg 77%
    17:00 +15°C° 0 mm 4 m/S 756 mmHg 78%
    18:00 +14°C° 0 mm 4 m/S 756 mmHg 81%
    19:00 +14°C° 0 mm 4 m/S 756 mmHg 84%
    20:00 +13°C° 0 mm 3 m/S 757 mmHg 88%
    21:00 +13°C° 0 mm 4 m/S 757 mmHg 87%
    22:00 +14°C° 0 mm 4 m/S 757 mmHg 86%
    23:00 +14°C° 0 mm 5 m/S 757 mmHg 85%

    übermorgen, 5 April, Sonntag

    Zeit Temperatur Niederschläge Wind Luftdruck Luftfeuchtigkeit
    00:00 +14°C° 0.1 mm 4 m/S 756 mmHg 86%
    01:00 +14°C° 0.1 mm 4 m/S 756 mmHg 87%
    02:00 +14°C° 0.1 mm 4 m/S 756 mmHg 88%
    03:00 +14°C° 0.2 mm 4 m/S 756 mmHg 89%
    04:00 +14°C° 0.2 mm 4 m/S 756 mmHg 90%
    05:00 +14°C° 0.2 mm 4 m/S 756 mmHg 92%
    06:00 +14°C° 0.1 mm 5 m/S 756 mmHg 89%
    07:00 +15°C° 0.1 mm 5 m/S 756 mmHg 87%
    08:00 +16°C° 0.1 mm 6 m/S 757 mmHg 85%
    09:00 +16°C° 0.4 mm 6 m/S 757 mmHg 86%
    10:00 +17°C° 0.4 mm 6 m/S 757 mmHg 86%
    11:00 +17°C° 0.4 mm 5 m/S 757 mmHg 86%
    12:00 +19°C° 0.6 mm 6 m/S 756 mmHg 84%
    13:00 +19°C° 0.6 mm 6 m/S 756 mmHg 82%
    14:00 +20°C° 0.6 mm 6 m/S 756 mmHg 80%
    15:00 +19°C° 0.9 mm 6 m/S 757 mmHg 83%
    16:00 +19°C° 0.9 mm 5 m/S 757 mmHg 86%
    17:00 +18°C° 0.9 mm 4 m/S 757 mmHg 89%
    18:00 +17°C° 0.1 mm 3 m/S 758 mmHg 91%
    19:00 +16°C° 0.1 mm 2 m/S 758 mmHg 94%
    20:00 +15°C° 0.1 mm 2 m/S 759 mmHg 96%
    21:00 +14°C° 0 mm 1 m/S 760 mmHg 97%
    22:00 +14°C° 0 mm 1 m/S 760 mmHg 97%
    23:00 +13°C° 0 mm 1 m/S 760 mmHg 97%

    6 April, Montag

    Zeit Temperatur Niederschläge Wind Luftdruck Luftfeuchtigkeit
    00:00 +13°C° 0 mm 1 m/S 760 mmHg 97%
    01:00 +13°C° 0 mm 1 m/S 760 mmHg 98%
    02:00 +11°C° 0 mm 0 m/S 761 mmHg 98%
    03:00 +11°C° 0 mm 0 m/S 761 mmHg 98%
    04:00 +11°C° 0 mm 0 m/S 761 mmHg 98%
    05:00 +11°C° 0 mm 0 m/S 761 mmHg 97%
    06:00 +12°C° 0 mm 0 m/S 762 mmHg 93%
    07:00 +14°C° 0 mm 0 m/S 762 mmHg 89%
    08:00 +15°C° 0 mm 0 m/S 763 mmHg 85%
    09:00 +17°C° 0 mm 0 m/S 763 mmHg 77%
    10:00 +21°C° 0 mm 1 m/S 763 mmHg 68%
    11:00 +22°C° 0 mm 1 m/S 764 mmHg 60%
    12:00 +23°C° 0.2 mm 1 m/S 763 mmHg 59%
    13:00 +23°C° 0.2 mm 1 m/S 763 mmHg 59%
    14:00 +23°C° 0.2 mm 2 m/S 763 mmHg 58%
    15:00 +21°C° 0.4 mm 2 m/S 763 mmHg 65%
    16:00 +20°C° 0.4 mm 2 m/S 763 mmHg 71%
    17:00 +19°C° 0.4 mm 2 m/S 763 mmHg 77%
    18:00 +17°C° 0 mm 2 m/S 764 mmHg 81%
    19:00 +16°C° 0 mm 1 m/S 764 mmHg 85%
    20:00 +14°C° 0 mm 1 m/S 765 mmHg 88%
    21:00 +14°C° 0 mm 1 m/S 765 mmHg 88%
    22:00 +13°C° 0 mm 0 m/S 765 mmHg 88%
    23:00 +12°C° 0 mm 0 m/S 765 mmHg 87%

    7 April, Dienstag

    Zeit Temperatur Niederschläge Wind Luftdruck Luftfeuchtigkeit
    00:00 +12°C° 0 mm 0 m/S 765 mmHg 88%
    01:00 +12°C° 0 mm 0 m/S 764 mmHg 88%
    02:00 +12°C° 0 mm 0 m/S 764 mmHg 89%
    03:00 +11°C° 0 mm 0 m/S 764 mmHg 89%
    04:00 +12°C° 0 mm 1 m/S 764 mmHg 90%
    05:00 +12°C° 0 mm 1 m/S 764 mmHg 91%
    06:00 +14°C° 0 mm 1 m/S 764 mmHg 86%
    07:00 +16°C° 0 mm 1 m/S 764 mmHg 81%
    08:00 +18°C° 0 mm 2 m/S 764 mmHg 76%
    09:00 +19°C° 0 mm 2 m/S 764 mmHg 69%
    10:00 +21°C° 0 mm 2 m/S 765 mmHg 62%
    11:00 +24°C° 0 mm 2 m/S 765 mmHg 56%
    12:00 +24°C° 0 mm 2 m/S 764 mmHg 54%
    13:00 +25°C° 0 mm 2 m/S 764 mmHg 53%
    14:00 +25°C° 0 mm 1 m/S 763 mmHg 52%
    15:00 +24°C° 0 mm 1 m/S 763 mmHg 56%
    16:00 +24°C° 0 mm 1 m/S 763 mmHg 61%
    17:00 +23°C° 0 mm 1 m/S 763 mmHg 66%
    18:00 +21°C° 0 mm 1 m/S 764 mmHg 71%
    19:00 +19°C° 0 mm 2 m/S 764 mmHg 76%
    20:00 +17°C° 0 mm 2 m/S 765 mmHg 80%
    21:00 +18°C° 0 mm 1 m/S 765 mmHg 81%
    22:00 +16°C° 0 mm 1 m/S 765 mmHg 82%
    23:00 +16°C° 0 mm 1 m/S 765 mmHg 83%

    8 April, Mittwoch

    Zeit Temperatur Niederschläge Wind Luftdruck Luftfeuchtigkeit
    00:00 +16°C° 0 mm 1 m/S 764 mmHg 82%
    01:00 +16°C° 0 mm 1 m/S 764 mmHg 81%
    02:00 +18°C° 0 mm 1 m/S 763 mmHg 80%
    03:00 +16°C° 0 mm 1 m/S 763 mmHg 81%
    04:00 +16°C° 0 mm 1 m/S 763 mmHg 82%
    05:00 +16°C° 0 mm 1 m/S 763 mmHg 83%
    06:00 +16°C° 0.1 mm 1 m/S 764 mmHg 84%
    07:00 +16°C° 0.1 mm 1 m/S 764 mmHg 85%
    08:00 +16°C° 0.1 mm 2 m/S 764 mmHg 87%
    09:00 +17°C° 0 mm 2 m/S 764 mmHg 84%
    10:00 +17°C° 0 mm 2 m/S 764 mmHg 82%
    11:00 +18°C° 0 mm 3 m/S 764 mmHg 80%
    12:00 +19°C° 0 mm 2 m/S 764 mmHg 76%
    13:00 +20°C° 0 mm 2 m/S 764 mmHg 73%
    14:00 +21°C° 0 mm 2 m/S 763 mmHg 70%
    15:00 +20°C° 0 mm 2 m/S 763 mmHg 71%
    16:00 +20°C° 0 mm 2 m/S 763 mmHg 73%
    17:00 +20°C° 0 mm 2 m/S 763 mmHg 74%
    18:00 +20°C° 0 mm 1 m/S 763 mmHg 79%
    19:00 +18°C° 0 mm 1 m/S 763 mmHg 84%
    20:00 +16°C° 0 mm 1 m/S 764 mmHg 89%
    21:00 +16°C° 0 mm 1 m/S 764 mmHg 89%
    22:00 +16°C° 0 mm 1 m/S 764 mmHg 89%
    23:00 +16°C° 0 mm 1 m/S 764 mmHg 89%
    Mehr zeigen